星链-36209(STARLINK-36209)

导读

STARLINK-36209是美国SpaceX公司星链(Starlink)星座的一颗低轨通信卫星,于2025年12月10日发射入轨。星链是全球规模最大的低轨互联网星座项目,旨在为全球提供高速低时延互联网接入服务。STARLINK-36209运行于近地轨道,采用相控阵天线与激光星间链路技术,具备高带宽通信能力,将进一步扩展星链星座的全球覆盖范围与通信容量,助力星链网络服务能力提升。

Basic Information
目录编号:
67022
目录名称:
STARLINK-36209
国际标识:
2025-293V
轨道中心:
EARTH
卫星名称:
星链-36209
卫星全名:
星链-36209(STARLINK-36209)
卫星状态:
在轨 (已飞行269 天)
发射日期:
2025-12-10 UTC
国别 :
美国 (US)
星等 :
--
Orbit Information
数据来源 国际轨道数据
星历时间: 2026-09-05T06:00:02+0800
8小时前
查看轨道信息
半长轴: 6950.094km
偏心率: 0.0003619
轨道倾角: 70.002°
近地点辐角 270.797°
升交点赤经 2.458°
平近点角 203.123°
近地点: 569.441km
远地点: 574.473km
周期: 96.105分钟
每日圈数: 14.983621
Detailed Information
固有亮度:
5
最大亮度:
2.5
卫星平台:
Starlink V1.0
覆盖范围:
全球
运营商:
太空探索技术公司
运营商所在国:
美国
制造商(研发单位):
太空探索技术公司
制造商所在国:
美国
使用方式:
暂无
Satellite Introduction
Starlink 计划是 SpaceX 推出的全球卫星互联网项目,通过发射低轨道卫星,为全球尤其是偏远地区提供高速、低延迟的互联网服务。自 2019 年起,Starlink 已部署数千颗卫星,旨在缩小全球数字鸿沟,推动互联网普及。该项目还为军事、航空等行业提供通信支持,带来广泛经济效益。
2D Orbit Map
3D Orbit Map
Orbit Altitude Analysis Chart
Orbit Inclination Analysis Chart
Orbit Comprehensive Analysis Chart
View Comprehensive Chart
Conjunction Data List
Event ID Objects TCA Miss Dist (km) Collision Risk Probability Collision Risk Index (CRI) Action
CDM_260907-002705-565106-702221
2026-09-07T
00:27:04+0000
0.337 km
远距离
3.586397E-4 高风险 0.86
CDM_260907-042705-565106-702221
2026-09-07T
04:27:25+0000
1.089 km
极远距离
1.540031E-5 中风险 0.59
CDM_260906-143205-910606-702221
RROCI-2 (59106)
2026-09-06T
14:32:46+0000
0.964 km
远距离
1.400752E-5 中风险 0.58